Regional Weather Roundup
Issued by NWS

Home | Current Version | Previous Version | Text Only | Print | Product List | Glossary On
Versions: 1 2 3 4 5 6 7 8 9 10 11 12 13 14 15 16 17 18 19 20 21 22 23 24 25 26 27 28 29 30 31 32 33 34 35 36 37 38 39 40 41 42 43 44 45 46 47 48 49 50
000
ASUS43 KMPX 301510
RWRMN
WEATHER ROUNDUP FOR MINNESOTA
NATIONAL WEATHER SERVICE TWIN CITIES/CHANHASSEN MN
1000 AM CDT SUN AUG 30 2015


NOTE: "FAIR" INDICATES FEW OR NO CLOUDS BELOW 12,000 FEET WITH NO
SIGNIFICANT WEATHER AND/OR OBSTRUCTIONS TO VISIBILITY. N/A MEANS
CURRENT SKY AND/OR WEATHER CONDITIONS ARE NOT AVAILABLE.

MNZ060>063-068>070-301600-
   Twin Cities Metro

CITY           SKY/WX    TMP DP  RH WIND       PRES   REMARKS
TWIN CITIES    PTSUNNY   64  59  83 S7        30.01R
ST PAUL        MOSUNNY   65  61  87 S7        30.01S
CRYSTAL        CLOUDY    66  60  81 S8        29.99S
LAKEVILLE      CLOUDY    63  61  94 S5        30.01F
EDEN PRAIRIE   CLOUDY    64  60  87 SW9       30.00S
SOUTH ST PAUL  MOSUNNY   65  60  83 S8        30.00S
LAKE ELMO      CLOUDY    64  61  88 S10       30.02S
$$
MNZ001>005-007-008-013>017-022>024-027-028-301600-
   Northwest Minnesota

CITY           SKY/WX    TMP DP  RH WIND       PRES   REMARKS
BEMIDJI        PTSUNNY   66  64  90 S8        29.88S
HALLOCK        PTSUNNY   72  66  83 S16       29.75F
ROSEAU         CLOUDY    70  63  78 S8        29.80S
WARROAD        CLOUDY    70  64  83 S7        29.80F
THIEF RVR FALL PTSUNNY  N/A N/A N/A S10       29.81S
CROOKSTON      MOSUNNY   72  64  78 S16G23    29.80F
FOSSTON        MOSUNNY   72  64  78 S10       29.85S
DETROIT LAKES  SUNNY     70  63  78 S9        29.89S
MOORHEAD       SUNNY     70  63  78 S14       29.84F
PARK RAPIDS    SUNNY     68  61  78 S10       29.90F
MAHNOMEN       FAIR      71  64  80 S13G18    29.85S
$$
MNZ006-009>011-018-025>026-301600-
   North Central Minnesota

CITY           SKY/WX    TMP DP  RH WIND       PRES   REMARKS
BAUDETTE       PTSUNNY   70  65  84 SW8       29.82S
FLAG ISLAND    PTSUNNY   68  64  88 S8        29.79F
INTL FALLS     PTSUNNY   70  66  87 SW8       29.85S
WASKISH        PTSUNNY   72  66  83 S5        29.84S
BIG FORK       CLOUDY    68  63  83 S10       29.89F
LONGVILLE      MOSUNNY   68  63  83 S10       29.91F
GRAND RAPIDS     N/A     64  61  88 S12       29.92S
CRANE LAKE     CLOUDY    64  63  94 S7        29.89F
ORR            CLOUDY    64  61  88 S6        29.87S
COOK           CLOUDY    64  63  94 S6        29.90F
WALKER         FAIR      67  62  85 S7        29.90S
$$
MNZ012-019>021-037-301600-
   Northeast Minnesota

CITY           SKY/WX    TMP DP  RH WIND       PRES   REMARKS
DULUTH         SUNNY     68  61  78 SW12      29.94F
ELY            CLOUDY    64  61  88 SW9       29.91S
HIBBING        CLOUDY    65  62  90 VRB6      29.92F
EVELETH        CLOUDY    63  63 100 SW9       29.93F
DULUTH HARBOR  SUNNY     70  63  78 SW15      29.93F
TWO HARBORS    PTSUNNY   70  64  83 SW7       29.92S
SILVER BAY     MOSUNNY   70  61  73 SW6       29.90F
GRAND MARAIS     N/A     52  51  97 W3        29.91F
G MARAIS ARPRT PTSUNNY   63  57  82 S6        29.93F
$$
MNZ029>031-032-039>041-046>048-054>057-064-301600-
   West Central Minnesota

CITY           SKY/WX    TMP DP  RH WIND       PRES   REMARKS
FERGUS FALLS   SUNNY     66  64  94 S14       29.88F
WHEATON        SUNNY     66  63  88 SE14      29.89S
MORRIS         SUNNY     66  64  94 S13       29.90F FOG
ALEXANDRIA     SUNNY     66  62  87 S12       29.94F
ELBOW LAKE     FAIR      66  63  90 SE14      29.90S
WADENA         SUNNY     66  63  88 S10       29.91S
GLENWOOD       SUNNY     66  63  88 S14       29.95S
APPLETON       SUNNY     70  63  78 S8        29.91F
BENSON         SUNNY     66  61  82 S8        29.93F
ORTONVILLE     SUNNY     66  63  88 SE8       29.90S
MADISON        SUNNY     68  64  88 SE10      29.91F FOG
WILLMAR        FAIR      66  63  88 S6        29.97F
$$
MNZ033>034-036-042>043-049>051-058-059-301600-
   Central Minnesota

CITY           SKY/WX    TMP DP  RH WIND       PRES   REMARKS
ST CLOUD       CLOUDY    63  60  90 S12       29.97S
SAUK CENTRE    PTSUNNY   65  61  86 S9        29.95F
PAYNESVILLE    PTSUNNY   65  61  86 SE12      29.97S
AITKIN         CLOUDY    66  61  82 S8        29.93S
PINE RIVER     CLOUDY    64  61  88 S8        29.96S
BRAINERD       CLOUDY    64  60  87 SW12      29.95S
STAPLES        CLOUDY    64  63  94 S9        29.92F
LONG PRAIRIE   CLOUDY    64  61  88 S10       29.95S
LITTLE FALLS   CLOUDY    63  59  88 S9        29.96S
LITCHFIELD     PTSUNNY   66  63  88 SE5       29.99S
BUFFALO        PTSUNNY   63  58  84 S8        30.00F
MAPLE LAKE     CLOUDY    64  62  93 S8        30.00S
$$
MNZ037-044-045-052-053-301600-
   East Central Minnesota

CITY           SKY/WX    TMP DP  RH WIND       PRES   REMARKS
PRINCETON      CLOUDY    66  63  88 S6        29.98S
MORA           CLOUDY    63  59  88 S7        30.00R
CAMBRIDGE      CLOUDY    66  57  72 S9        29.97S
RUSH CITY      PTSUNNY   66  61  84 S9        29.99S
MOOSE LAKE     MOSUNNY   66  61  82 S8        29.95S
HINCKLEY       PTSUNNY   68  63  83 S10       29.98S
CLOQUET        SUNNY     68  61  77 S9        29.94F
MCGREGOR       MOSUNNY   66  61  82 S12       29.95S
$$
MNZ071>073-080-081-089-090-097-098-301600-
   Southwest Minnesota

CITY           SKY/WX    TMP DP  RH WIND       PRES   REMARKS
MONTEVIDEO     SUNNY     68  64  88 SW9       29.95F
GRANITE FALLS  SUNNY     66  63  90 SE9       29.97S
CANBY          SUNNY     70  62  76 S3        29.93S
MARSHALL       SUNNY     66  59  77 S16       29.96F
REDWOOD FALLS  MOSUNNY   67  61  81 S14       29.97F
OLIVIA         MOSUNNY   64  59  82 S10       29.97F
PIPESTONE      CLOUDY    63  63 100 SW9       29.99F FOG
WINDOM         MOSUNNY   66  61  82 S10       30.01F
WORTHINGTON    PTSUNNY   63  57  82 S12       30.01F
JACKSON        PTSUNNY   64  61  88 SW8       30.04R
TRACY          PTSUNNY   66  62  87 S12G17    29.98S FOG
SLAYTON        CLOUDY    63  62  96 S10       30.01S FOG
$$
MNZ065>067-074>077-082>085-091>093-301600-
   South Central Minnesota

CITY           SKY/WX    TMP DP  RH WIND       PRES   REMARKS
MANKATO        CLOUDY    63  59  88 S8        30.02S
NEW ULM        PTSUNNY   64  63  94 S7        30.00S
ST JAMES       PTSUNNY   64  63  94 S6        30.03R
FAIRMONT       CLOUDY    63  55  77 SW9       30.03S
GLENCOE        CLOUDY    64  62  93 S6        30.00S
FARIBAULT      CLOUDY    63  61  94 S7        30.03S FOG
OWATONNA       CLOUDY    64  61  88 S10       30.04S
WASECA         CLOUDY    63  61  94 SW10      30.05S FOG
ALBERT LEA     CLOUDY    64  63  94 S7        30.05S
$$
MNZ078>079-086>088-094>096-301600-
   Southeast Minnesota

CITY           SKY/WX    TMP DP  RH WIND       PRES   REMARKS
ROCHESTER      CLOUDY    63  62  97 SW9       30.06F
RED WING       CLOUDY    66  63  88 SE5       30.02S
STANTON        CLOUDY    66  62  87 SW10      30.01S
DODGE CENTER   CLOUDY    63  61  94 SW12      30.05S FOG
WINONA         PTSUNNY   61  61 100 CALM      30.06R
AUSTIN         CLOUDY    64  63  94 SW9       30.06S FOG
PRESTON        CLOUDY    62  60  96 S8        30.07S FOG
$$
ABBREVIATIONS USED IN REMARKS
   TC - TEMPERATURES IN CELSIUS
  WCI - WIND CHILL INDEX
   HX - HEAT INDEX
  VSB - VISIBILITY
$$


USA.gov is the U.S. government's official web portal to all federal, state and local government web resources and services.